Change the Weather History Date:

Monday, January 21, 2013

  Actual Average (KJFX) Record (KJFX)
Temperature  
Mean Temperature 37 °F -  
Max Temperature 45 °F 49 °F 70 °F (1967)
Min Temperature 27 °F 28 °F -10 °F (1985)
Degree Days  
Heating Degree Days 28    
Moisture  
Dew Point 21 °F    
Average Humidity 63    
Maximum Humidity 100    
Minimum Humidity 30    
Precipitation  
Precipitation 0.00 in - - ()
Sea Level Pressure  
Sea Level Pressure 30.26 in    
Wind  
Wind Speed 4 mph (North)    
Max Wind Speed 12 mph    
Max Gust Speed 18 mph    
Visibility 10 miles    
Events      
Averages and records for this station are not official NWS values.
T = Trace of Precipitation, MM = Missing Value Source: NWS Daily Summary

Daily Weather History Graph

Daily Weather History Graph

Search for Another Location

Airport or City:

Trip Planner

Search our weather history database for the weather conditions in past years. The results will help you decide how hot, cold, wet, or windy it might be!

Date:

Astronomy

Jan. 21, 2013 Rise Set
Actual Time 6:54 AM CST 5:09 PM CST
Civil Twilight 6:27 AM CST 5:36 PM CST
Nautical Twilight 5:56 AM CST 6:07 PM CST
Astronomical Twilight 5:26 AM CST 6:37 PM CST
Moon 12:50 PM CST (1/21) 2:21 AM CST (1/21)
Length of Visible Light 11h 09m
Length of Day
10h 15m
Waxing Gibbous, 75% of the Moon is Illuminated
Jan 21
Waxing Gibbous
Jan 26
Full
Feb 3
Last Quarter
Feb 10
New
Feb 17
First Quarter

Hourly Weather History & Observations

Time (CST) Temp. Windchill Dew Point Humidity Pressure Visibility Wind Dir Wind Speed Gust Speed Precip Events Conditions
12:56 AM 31.1 °F - 30.0 °F 96% 30.19 in 10.0 mi Calm Calm - N/A   Clear
1:56 AM 29.1 °F - 29.1 °F 100% 30.19 in 10.0 mi Calm Calm - N/A   Clear
2:56 AM 29.1 °F 24.1 °F 29.1 °F 100% 30.19 in 10.0 mi North 4.6 mph - N/A   Clear
3:56 AM 29.1 °F - 29.1 °F 100% 30.18 in 10.0 mi Calm Calm - N/A   Clear
4:56 AM 29.1 °F - 29.1 °F 100% 30.19 in 10.0 mi Calm Calm - N/A   Clear
5:56 AM 30.0 °F - 29.1 °F 96% 30.19 in 10.0 mi Calm Calm - N/A   Clear
6:56 AM 30.0 °F 26.5 °F 27.1 °F 89% 30.22 in 10.0 mi NNE 3.5 mph - N/A   Clear
7:56 AM 32.0 °F 24.8 °F 26.1 °F 79% 30.26 in 10.0 mi North 8.1 mph - N/A   Clear
8:56 AM 36.0 °F 29.6 °F 23.0 °F 59% 30.29 in 10.0 mi North 8.1 mph - N/A   Clear
9:56 AM 37.9 °F 30.9 °F 22.1 °F 53% 30.31 in 10.0 mi North 10.4 mph - N/A   Clear
10:56 AM 41.0 °F 35.2 °F 19.0 °F 41% 30.31 in 10.0 mi North 9.2 mph - N/A   Clear
11:56 AM 43.9 °F 37.9 °F 19.0 °F 37% 30.28 in 10.0 mi North 11.5 mph 18.4 mph N/A   Clear
12:56 PM 43.9 °F 38.3 °F 17.1 °F 34% 30.27 in 10.0 mi NNW 10.4 mph - N/A   Clear
1:56 PM 45.0 °F 40.1 °F 17.1 °F 33% 30.25 in 10.0 mi NW 9.2 mph - N/A   Clear
2:56 PM 45.9 °F 41.2 °F 16.2 °F 30% 30.25 in 10.0 mi North 9.2 mph - N/A   Clear
3:56 PM 45.0 °F 40.1 °F 16.2 °F 32% 30.27 in 10.0 mi North 9.2 mph - N/A   Clear
4:56 PM 41.0 °F 35.2 °F 16.2 °F 37% 30.28 in 10.0 mi North 9.2 mph - N/A   Clear
5:56 PM 36.9 °F 31.4 °F 18.1 °F 47% 30.29 in 10.0 mi NNW 6.9 mph - N/A   Clear
6:56 PM 34.0 °F 28.0 °F 18.1 °F 52% 30.30 in 10.0 mi NNW 6.9 mph - N/A   Clear
7:56 PM 32.0 °F 27.5 °F 17.1 °F 54% 30.30 in 10.0 mi North 4.6 mph - N/A   Clear
8:56 PM 30.0 °F 24.1 °F 18.1 °F 61% 30.31 in 10.0 mi North 5.8 mph - N/A   Clear
9:56 PM 29.1 °F 23.0 °F 17.1 °F 61% 30.31 in 10.0 mi North 5.8 mph - N/A   Clear
10:56 PM 29.1 °F 20.6 °F 16.2 °F 58% 30.31 in 10.0 mi North 9.2 mph - N/A   Clear
11:56 PM 27.1 °F 19.7 °F 15.1 °F 60% 30.30 in 10.0 mi North 6.9 mph - N/A   Clear